This demonstration page uses our WeatherBlox Daily Observations layout. Learn more.

38.89511, -77.03637

Hourly Observations for June 28, 2020

Temp ( °F °C ) Dew Point ( °F °C ) Humidity (%) Winds ( mph kmh ) Pressure ( in mb ) Visibility ( mi km ) Precip ( " mm )
12:52 am 00:52 Cloudy 80 26.7 74 23.3 82 82 NNW 5 7 29.79 1009 10 16.0934 0 0
1:52 am 01:52 Cloudy 79 26.1 68 20 69 69 NW 8 13 29.8 1009 10 16.0934 0 0
2:52 am 02:52 Cloudy 78 25.6 67 19.4 69 69 NNW 5 7 29.78 1009 10 16.0934 0 0
3:52 am 03:52 Cloudy 77 25 66 18.9 69 69 WNW 5 7 29.78 1009 10 16.0934 0 0
4:52 am 04:52 Mostly Cloudy 77 25 66 18.9 69 69 NNW 6 9 29.78 1009 10 16.0934 0 0
5:52 am 05:52 Mostly Cloudy 76 24.4 66 18.9 72 72 NNE 5 7 29.79 1009 10 16.0934 0 0
6:52 am 06:52 Mostly Cloudy 77 25 68 20 74 74 N 5 7 29.8 1009 10 16.0934 0 0
7:52 am 07:52 Mostly Cloudy 79 26.1 68 20 69 69 N 6 9 29.81 1010 10 16.0934 0 0
8:52 am 08:52 Mostly Cloudy 82 27.8 67 19.4 60 60 VRB 3 6 29.81 1010 10 16.0934 0 0
9:52 am 09:52 Mostly Cloudy 81 27.2 67 19.4 62 62 WNW 8 13 29.81 1010 10 16.0934 0 0
10:52 am 10:52 Mostly Cloudy 83 28.3 68 20 61 61 WNW 8 13 29.82 1010 10 16.0934 0 0
11:52 am 11:52 Mostly Cloudy 85 29.4 68 20 57 57 W 10 17 29.81 1010 10 16.0934 0 0
12:52 pm 12:52 Mostly Cloudy 89 31.7 69 20.6 52 52 NNW 6 9 29.79 1009 10 16.0934 0 0
1:52 pm 13:52 Mostly Cloudy 89 31.7 68 20 50 50 W 12 19 29.76 1008 10 16.0934 0 0
2:52 pm 14:52 Mostly Cloudy 90 32.2 67 19.4 47 47 W 10 17 29.76 1008 10 16.0934 0 0
3:52 pm 15:52 Mostly Cloudy 88 31.1 69 20.6 54 54 W 12 19 29.75 1007 10 16.0934 0 0
4:52 pm 16:52 Mostly Cloudy 88 31.1 69 20.6 54 54 WSW 13 20 29.74 1007 10 16.0934 0 0
5:52 pm 17:52 Mostly Cloudy 87 30.6 69 20.6 55 55 W 13 20 29.73 1007 10 16.0934 0 0
6:52 pm 18:52 Mostly Cloudy 87 30.6 68 20 53 53 W 12 19 29.73 1007 10 16.0934 0 0
7:52 pm 19:52 Mostly Cloudy 86 30 68 20 55 55 W 9 15 29.74 1007 10 16.0934 0 0
8:52 pm 20:52 Mostly Cloudy 83 28.3 69 20.6 63 63 S 3 6 29.75 1008 10 16.0934 0 0
9:52 pm 21:52 Mostly Cloudy 82 27.8 69 20.6 65 65 SSW 8 13 29.76 1008 10 16.0934 0 0
10:52 pm 22:52 Mostly Cloudy 79 26.1 70 21.1 74 74 SSW 5 7 29.77 1008 10 16.0934 0 0
11:52 pm 23:52 Cloudy 79 26.1 70 21.1 74 74 WNW 3 6 29.78 1008 10 16.0934 0 0

Powered by AerisWeather